[[{"header":{"parameterUnit":"m.s-1","parameterCategory":1,"la1":30.2991,"la2":30.254,"lo1":-89.0895,"lo2":-89.0444,"dy":0.0017,"dx":0.0017,"nx":28,"ny":28,"refTime":"2024-07-16T09:00:00:Z","depth":0,"parameterNumber":2,"parameterNumberName":"U-component_of_WINDS"},"data":[0,0,0,0,0,0,0,0,0,0,0,0,0,0,0,0,0,0,0,0,0,0,0,0,0,0,0,0,0,0,0,0,0,0,0,0,0,0,0,0,0,0,0,0,0,0,0,0,0,0,0,0,0,0,0,0,0,0,0.3238,0.3239,0,0.3391,0.3392,0.3394,0.3468,0.3468,0.3468,0.3468,0.3628,0.3632,0.3636,0,0,0,0,0,0,0,0,0,0,0,0,0,0.301,0.3014,0.3237,0.3239,0.3241,0.339,0.3392,0.3395,0.3468,0.3468,0.3468,0.3468,0.3626,0.3631,0.3636,0,0,0,0,0,0,0,0,0,0,0,0,0,0.313,0.3015,0.3237,0.3296,0.3302,0.339,0.3393,0.3395,0.3468,0.3468,0.3468,0.3468,0.3624,0.3631,0.3637,0.3679,0,0,0.3657,0.366,0,0,0,0,0,0,0,0,0.3124,0.3139,0.3285,0.3292,0.33,0.341,0.3371,0.349,0.3468,0.3405,0.3468,0.3468,0.3555,0.3568,0.3597,0.3686,0.3693,0.3657,0.3661,0.3664,0.3666,0,0,0,0,0,0,0,0.3115,0.3133,0.3298,0.3287,0.3296,0.3315,0.3332,0.3394,0.3479,0.3411,0.3416,0.3433,0.3559,0.359,0.3601,0.3695,0.3657,0.3663,0.3667,0.367,0.3826,0.3827,0,0,0,0,0,0,0.3097,0.3125,0.3293,0.3303,0.3209,0.3319,0.3338,0.3375,0.3479,0.3494,0.3433,0.3436,0.3579,0.3593,0.3607,0.3662,0.3664,0.367,0.3674,0.3826,0.3827,0.3827,0,0,0,0,0,0,0.3092,0.3111,0.3287,0.3216,0.3239,0.3323,0.3364,0.3378,0.3409,0.3496,0.3511,0.3449,0.358,0.3598,0.366,0.3669,0.3673,0.3679,0.3826,0.3826,0.3827,0.3773,0,0,0,0,0,0,0.3085,0.3109,0.3125,0.3215,0.3243,0.3337,0.3364,0.3381,0.3419,0.3425,0.3515,0.3529,0.3581,0.365,0.3666,0.3678,0.3684,0.3825,0.3826,0.3827,0.3775,0.3772,0.3769,0,0,0,0,0,0.3077,0.3105,0.3126,0.3146,0.3265,0.3337,0.3353,0.3411,0.342,0.3437,0.3493,0.3527,0.3665,0.3656,0.3675,0.3688,0.3825,0.3826,0.3827,0.3776,0.3772,0.3769,0,0,0,0,0,0,0.3015,0.3118,0.3142,0.32,0.3259,0.335,0.3373,0.3406,0.3464,0.3467,0.3537,0.3557,0.3613,0.3657,0.3645,0.3734,0.3748,0.3753,0.3703,0.37,0.3698,0.3686,0.3689,0,0,0,0,0,0.3008,0.3057,0.3145,0.3188,0.3216,0.3289,0.3323,0.3362,0.3427,0.3452,0.3513,0.3575,0.3632,0.3669,0.3727,0.3781,0.3802,0.38,0.3797,0.3794,0.3798,0.3829,0.3829,0.3829,0.3829,0.3829,0,0,0.2994,0.3057,0.3084,0.3177,0.3227,0.3277,0.331,0.3362,0.34,0.3461,0.3523,0.3569,0.3643,0.3701,0.373,0.374,0.3802,0.3795,0.3792,0.3797,0.383,0.383,0.383,0.3829,0.3829,0.3829,0,0,0.2995,0.3047,0.3088,0.3138,0.3213,0.3261,0.3271,0.3356,0.3389,0.3452,0.3499,0.3545,0.3643,0.3693,0.3732,0.375,0.3783,0.3766,0.3753,0.3783,0.3783,0.3783,0.379,0.3791,0.3769,0.3769,0.3769,0,0.2969,0.3046,0.3106,0.3155,0.3194,0.325,0.3292,0.3338,0.3428,0.3455,0.3464,0.3586,0.364,0.3711,0.3715,0.3744,0.3758,0.3757,0.3778,0.3779,0.378,0.3787,0.379,0.3767,0.3767,0.3767,0.3768,0,0.301,0.3062,0.3087,0.3171,0.3214,0.3259,0.3326,0.3362,0.3397,0.3444,0.3507,0.3573,0.3645,0.3665,0.37,0.374,0.3744,0.3764,0.3781,0.3777,0.3785,0.3788,0.3763,0.3764,0.3765,0.3765,0,0,0.2978,0.3094,0.3102,0.3141,0.3227,0.3269,0.3317,0.3386,0.3415,0.3475,0.3517,0.3597,0.3617,0.366,0.3702,0.3728,0.3738,0.3746,0.3749,0.3742,0.3786,0.3769,0.3772,0.376,0.3761,0.3761,0.3779,0,0.2991,0.3078,0.3133,0.3199,0.3248,0.3301,0.3342,0.34,0.3445,0.3494,0.3544,0.36,0.3621,0.3647,0.3676,0.373,0.3747,0.373,0.38,0.3802,0.378,0.3776,0.376,0.3774,0.3783,0.3783,0.3784,0,0.3018,0.3076,0.3146,0.3226,0.3249,0.3285,0.3352,0.3398,0.3464,0.3495,0.3543,0.3584,0.3637,0.3648,0.3722,0.3708,0.374,0.3771,0.3773,0.3783,0.3793,0.3785,0.378,0.3781,0.3789,0.3789,0.3788,0,0.2988,0.3083,0.3137,0.3169,0.3264,0.3288,0.3329,0.3395,0.3432,0.3491,0.3516,0.358,0.3616,0.3665,0.3723,0.3725,0.3791,0.3806,0.3818,0.3817,0.383,0.3829,0.383,0.385,0.385,0.385,0.385,0,0.2997,0.3038,0.3124,0.3158,0.3205,0.3267,0.3312,0.3358,0.3416,0.3459,0.3509,0.3549,0.3622,0.3671,0.3717,0.3771,0.3786,0.3813,0.3825,0.3809,0.3805,0.3831,0.3832,0.385,0.385,0.385,0.385,0,0.2971,0.3031,0.3093,0.3177,0.32,0.3231,0.3303,0.3337,0.3384,0.3438,0.3455,0.3529,0.3589,0.3651,0.3732,0.3763,0.3815,0.3832,0.3793,0.3799,0.3808,0.3806,0.3826,0.3832,0.3847,0.3846,0.3846,0,0.2974,0.3006,0.3093,0.3125,0.3164,0.3216,0.3254,0.3316,0.3354,0.3431,0.3456,0.3519,0.3573,0.3666,0.3728,0.379,0.3809,0.3811,0.3818,0.3801,0.3809,0.3806,0.381,0.3809,0.3808,0.3808,0.3807,0,0.2971,0.2999,0.3052,0.3114,0.3158,0.3211,0.3265,0.3289,0.3362,0.3402,0.3463,0.3504,0.3586,0.3649,0.3718,0.3761,0.3796,0.3804,0.3811,0.3795,0.3771,0.3784,0.3786,0.3804,0.3804,0.3805,0.3805,0.3805,0.296,0.2991,0.3057,0.3114,0.3161,0.3211,0.3247,0.3298,0.3349,0.342,0.3454,0.3515,0.358,0.3677,0.3718,0.3767,0.3778,0.3786,0.3789,0.379,0.3786,0.3762,0.378,0.378,0.3781,0.3781,0.3781,0,0.2961,0.3005,0.3057,0.3131,0.3175,0.3203,0.3265,0.33,0.3353,0.341,0.3462,0.3532,0.3592,0.3657,0.3721,0.3748,0.3766,0.3763,0.3762,0.3771,0.3773,0.3762,0.3747,0.3747,0.3747,0.3747,0.3747,0.3747,0.2966,0.302,0.3055,0.3133,0.3177,0.3237,0.3269,0.3315,0.3361,0.3436,0.3486,0.3528,0.3588,0.3657,0.3713,0.3731,0.3752,0.3745,0.3767,0.3768,0.3771,0.3773,0.3763,0.3749,0.3749,0.3761,0.3761,0.3761]},{"header":{"parameterUnit":"m.s-1","parameterCategory":1,"la1":30.2991,"la2":30.254,"lo1":-89.0895,"lo2":-89.0444,"dy":0.0017,"dx":0.0017,"nx":28,"ny":28,"refTime":"2024-07-16T09:00:00:Z","depth":0,"parameterNumber":3,"parameterNumberName":"V-component_of_WINDS"},"data":[0,0,0,0,0,0,0,0,0,0,0,0,0,0,0,0,0,0,0,0,0,0,0,0,0,0,0,0,0,0,0,0,0,0,0,0,0,0,0,0,0,0,0,0,0,0,0,0,0,0,0,0,0,0,0,0,0,0,3.926,3.926,0,3.9211,3.921,3.921,3.9208,3.9208,3.9209,3.921,3.9152,3.915,3.9148,0,0,0,0,0,0,0,0,0,0,0,0,0,3.9346,3.9345,3.926,3.926,3.9259,3.9211,3.921,3.9209,3.9208,3.9209,3.9209,3.921,3.9153,3.915,3.9147,0,0,0,0,0,0,0,0,0,0,0,0,0,3.9304,3.9344,3.926,3.9253,3.9251,3.9211,3.921,3.9209,3.9208,3.9209,3.9209,3.921,3.9153,3.915,3.9147,3.9109,0,0,3.9137,3.9136,0,0,0,0,0,0,0,0,3.9306,3.9301,3.9254,3.9253,3.9252,3.9217,3.9219,3.9175,3.9207,3.9224,3.921,3.9211,3.9172,3.9167,3.9156,3.9106,3.9104,3.9137,3.9135,3.9134,3.9133,0,0,0,0,0,0,0,3.9309,3.9303,3.924,3.9254,3.9252,3.9249,3.9244,3.9211,3.9193,3.9223,3.9222,3.9217,3.9171,3.9159,3.9155,3.9103,3.9137,3.9134,3.9132,3.9131,3.9018,3.9017,0,0,0,0,0,0,3.9315,3.9305,3.9242,3.9239,3.9282,3.9247,3.9241,3.9227,3.9194,3.919,3.9216,3.9217,3.9164,3.9158,3.9152,3.9105,3.9134,3.9131,3.9129,3.9019,3.9018,3.9017,0,0,0,0,0,0,3.9317,3.9309,3.9244,3.9272,3.9264,3.9245,3.9228,3.9225,3.9213,3.9189,3.9185,3.9207,3.9164,3.9157,3.912,3.9103,3.9129,3.9127,3.9021,3.9019,3.9017,3.901,0,0,0,0,0,0,3.9319,3.931,3.9297,3.9272,3.9262,3.9214,3.9227,3.9224,3.9208,3.9209,3.9179,3.9175,3.9165,3.9125,3.9117,3.9099,3.9124,3.9022,3.902,3.9018,3.9012,3.9009,3.9006,0,0,0,0,0,3.9322,3.9295,3.9296,3.9288,3.9246,3.9214,3.9208,3.9198,3.9207,3.9192,3.9177,3.9176,3.9107,3.9121,3.9112,3.9093,3.9023,3.9021,3.9018,3.9013,3.9009,3.9006,0,0,0,0,0,0,3.9316,3.9292,3.9292,3.9257,3.9238,3.9213,3.9195,3.9194,3.917,3.9171,3.9158,3.9151,3.9115,3.91,3.9117,3.9054,3.9065,3.9061,3.9065,3.9061,3.9058,3.9062,3.9121,0,0,0,0,0,3.9311,3.9289,3.9268,3.9239,3.9229,3.9214,3.9199,3.9194,3.9172,3.9163,3.9145,3.9122,3.9095,3.9077,3.9051,3.901,3.9003,3.8993,3.8989,3.8987,3.8983,3.8959,3.8954,3.9009,3.9009,3.9009,0,0,3.9299,3.9284,3.927,3.9237,3.9222,3.9197,3.9207,3.918,3.9162,3.9158,3.9123,3.9109,3.9082,3.9043,3.9025,3.903,3.8967,3.8984,3.8982,3.8979,3.8956,3.8951,3.8947,3.9007,3.9007,3.9008,0,0,3.9266,3.9253,3.9227,3.9211,3.9188,3.9178,3.9172,3.9148,3.9139,3.9104,3.9101,3.9077,3.9031,3.9012,3.8996,3.8956,3.8953,3.8947,3.8931,3.8908,3.8904,3.89,3.8884,3.8879,3.8944,3.8944,3.8944,0,3.9254,3.9219,3.9213,3.9187,3.9172,3.9171,3.9143,3.9127,3.9096,3.9084,3.9091,3.9033,3.9015,3.8971,3.8962,3.8949,3.894,3.895,3.8905,3.8901,3.8898,3.8883,3.8877,3.8943,3.8943,3.8943,3.8943,0,3.9205,3.9181,3.9162,3.9135,3.9118,3.9091,3.9078,3.9061,3.9057,3.9046,3.9009,3.8988,3.8957,3.8946,3.8941,3.8901,3.8905,3.8909,3.892,3.8892,3.8878,3.8872,3.8942,3.8942,3.8942,3.8943,0,0,3.9166,3.9136,3.9129,3.9116,3.9091,3.9071,3.9043,3.9016,3.9001,3.8979,3.8954,3.8915,3.8919,3.8901,3.8894,3.8874,3.8842,3.888,3.8879,3.8873,3.8796,3.8793,3.8787,3.8841,3.884,3.8839,3.8798,0,3.9129,3.9083,3.9076,3.9034,3.9011,3.9009,3.8985,3.8966,3.8954,3.8931,3.8917,3.889,3.8897,3.8886,3.8867,3.885,3.8826,3.8853,3.8816,3.8815,3.8822,3.8779,3.8776,3.8738,3.8792,3.8791,3.8791,0,3.908,3.9059,3.9016,3.8994,3.8984,3.8963,3.8937,3.8915,3.8892,3.8885,3.8866,3.8861,3.883,3.8843,3.8799,3.8818,3.8802,3.8792,3.879,3.8785,3.8801,3.8772,3.8726,3.872,3.8782,3.8783,3.8783,0,3.9055,3.9016,3.8985,3.8974,3.8948,3.8933,3.892,3.8899,3.8883,3.8859,3.8848,3.882,3.8804,3.8782,3.8769,3.878,3.8725,3.8738,3.8717,3.8717,3.8705,3.8705,3.8654,3.8696,3.8696,3.8696,3.8696,0,3.9014,3.8987,3.8974,3.8954,3.8924,3.8915,3.8884,3.8872,3.8853,3.883,3.8826,3.8804,3.8788,3.8763,3.8752,3.8717,3.871,3.8702,3.8699,3.8702,3.8703,3.869,3.8692,3.8695,3.8695,3.8695,3.8695,0,3.898,3.897,3.8936,3.8915,3.8909,3.8887,3.8867,3.8847,3.8837,3.8807,3.8799,3.8781,3.8751,3.8737,3.8699,3.8691,3.8651,3.865,3.866,3.8659,3.8638,3.864,3.8576,3.8567,3.8616,3.8615,3.8615,0,3.8954,3.8934,3.8911,3.8897,3.8885,3.8861,3.8845,3.8836,3.8819,3.8791,3.8774,3.8745,3.8721,3.8673,3.8655,3.8626,3.8623,3.8603,3.8619,3.8622,3.8622,3.8623,3.8621,3.86,3.86,3.8599,3.8599,0,3.891,3.8906,3.8885,3.8861,3.8843,3.8823,3.8804,3.8791,3.8778,3.8759,3.873,3.8712,3.8674,3.8644,3.8614,3.8599,3.8596,3.8594,3.8588,3.859,3.8596,3.8592,3.8651,3.8596,3.8596,3.8596,3.8596,3.8596,3.8879,3.8861,3.8842,3.8818,3.8803,3.8785,3.8765,3.8753,3.8729,3.87,3.8695,3.8664,3.864,3.86,3.8583,3.8557,3.8561,3.8552,3.8549,3.8547,3.8546,3.8601,3.8551,3.8551,3.8552,3.8552,3.8552,0,3.8833,3.8822,3.88,3.8774,3.8754,3.8757,3.8735,3.8718,3.8691,3.8671,3.8648,3.8614,3.8585,3.8565,3.8535,3.8518,3.8516,3.851,3.8511,3.8507,3.8544,3.8553,3.8513,3.8513,3.8513,3.8513,3.8513,3.8513,3.8807,3.8777,3.8771,3.8732,3.872,3.8691,3.8679,3.8661,3.8645,3.8609,3.8586,3.8574,3.8553,3.8522,3.8494,3.8489,3.8478,3.8472,3.8466,3.8501,3.8505,3.8509,3.8517,3.847,3.847,3.8432,3.8431,3.8431]}]]